This demonstration page uses our WeatherBlox Daily Observations layout. Learn more.

Left ArrowRight Arrow

Hourly Observations for March 16, 2020

Temp ( °F °C ) Dew Point ( °F °C ) Humidity (%) Winds ( mph kmh ) Pressure ( in mb ) Visibility ( mi km ) Precip ( " mm )
12:53 am 00:53 Cloudy 41 5 32 undefined 70 70 NE 3 6 30.47 1032 10 16 N/A
1:53 am 01:53 Cloudy 41 5 32 undefined 70 70 N N/A 30.45 1031 10 16 N/A
2:53 am 02:53 Cloudy 40 4.4 31 -0.6 70 70 ENE 3 6 30.43 1030 10 16 N/A
3:53 am 03:53 Cloudy 39 3.9 30 -1.1 70 70 NE 6 9 30.41 1030 10 16 N/A
4:53 am 04:53 Cloudy 39 3.9 28 -2.2 65 65 ENE 5 7 30.40 1029 10 16 N/A
5:53 am 05:53 Cloudy 38 3.3 27 -2.8 65 65 ENE 3 6 30.40 1029 10 16 N/A
6:53 am 06:53 Cloudy 38 3.3 28 -2.2 68 68 E 3 6 30.37 1029 10 16 N/A
7:53 am 07:53 Cloudy 38 3.3 29 -1.7 70 70 N N/A 30.40 1029 10 16 N/A
8:53 am 08:53 Cloudy 39 3.9 28 -2.2 65 65 NNE 3 6 30.40 1029 10 16 N/A
9:53 am 09:53 Cloudy 39 3.9 29 -1.7 67 67 E 6 9 30.38 1029 10 16 N/A
10:53 am 10:53 Cloudy 41 5 30 -1.1 65 65 N N/A 30.37 1029 10 16 N/A
11:53 am 11:53 Cloudy 44 6.7 31 -0.6 60 60 N N/A 30.35 1028 10 16 N/A
12:53 pm 12:53 Mostly Cloudy 47 8.3 33 0.6 59 59 N N/A 30.35 1028 10 16 N/A
1:53 pm 13:53 Mostly Cloudy 49 9.4 35 1.7 59 59 N N/A 30.30 1026 10 16 N/A
2:53 pm 14:53 Cloudy 50 10 35 1.7 57 57 VRB 6 9 30.26 1025 10 16 N/A
3:53 pm 15:53 Cloudy 49 9.4 34 1.1 56 56 VRB 5 7 30.23 1024 10 16 N/A
4:53 pm 16:53 Cloudy 50 10 36 2.2 59 59 S 5 7 30.22 1023 10 16 N/A
5:53 pm 17:53 Cloudy 47 8.3 36 2.2 66 66 VRB 5 7 30.22 1024 10 16 N/A
6:53 pm 18:53 Cloudy 48 8.9 36 2.2 63 63 S 5 7 30.21 1023 10 16 N/A
7:53 pm 19:53 Cloudy 47 8.3 37 2.8 69 69 SW 7 11 30.23 1024 10 16 N/A
8:53 pm 20:53 Cloudy 47 8.3 37 2.8 69 69 SSW 3 6 30.22 1023 10 16 N/A
9:53 pm 21:53 Cloudy 46 7.8 40 4.4 79 79 N N/A 30.22 1024 10 16 0.00 0.00
10:53 pm 22:53 Cloudy 46 7.8 40 4.4 79 79 N N/A 30.22 1023 10 16 0.00 0.00
11:53 pm 23:53 Cloudy 46 7.8 38 3.3 73 73 S 5 7 30.19 1022 10 16 N/A

Powered by AerisWeather